Orbital Elements at Epoch 2459200.5 (2020-Dec-17.0) TDB
Reference: JPL 35 (heliocentric ecliptic J2000)
Element | Value | Uncertainty (1-sigma) | Units |
e | .06022910222158934 | 3.2349e-08 | |
a | 2.586748654705662 | 8.9187e-09 | au |
q | 2.430951105559836 | 8.3764e-08 | au |
i | 1.568908025335994 | 3.2713e-06 | deg |
node | 257.4110064739936 | 0.00012256 | deg |
peri | 305.3208148096768 | 0.00012533 | deg |
M | 212.2321166708217 | 2.7825e-05 | deg |
tp | 2459824.245357692217 (2022-Sep-01.74535769) | 0.00011855 | TDB |
period | 1519.601713918972 4.16 | 7.8591e-06 2.152e-08 | d yr |
n | .2369041813407667 | 1.2252e-09 | deg/d |
Q | 2.742546203851488 | 9.4559e-09 | au |
|
| | Orbit Determination Parameters
Additional Information
|